Regional Weather Roundup
Issued by NWS

Home | Current Version | Previous Version | Text Only | Print | Product List | Glossary On
Versions: 1 2 3 4 5 6 7 8 9 10 11 12 13 14 15 16 17 18 19 20 21 22 23 24 25 26 27 28 29 30 31 32 33 34 35 36 37 38 39 40 41 42 43 44 45 46 47 48
000
ASPQ40 PGUM 040210
RWRPQ
WEATHER ROUNDUP FOR THE MARIANAS AND MICRONESIA
NATIONAL WEATHER SERVICE TIYAN GU
1200 PM CHST FRI SEP 04 2015

GUZ001>004-040300-
MARIANA ISLANDS-

CITY           SKY/WX    TMP DP  RH WIND       PRES   REMARKS
GUAM AIRPORT   PTSUNNY   84  77  79 SW3       29.81F HX  94
ANDERSEN AFB   PTSUNNY   84  77  79 S10       29.81F HX  94
ROTA AIRPORT   PTSUNNY   81  77  89 S5        29.82F
TINIAN AP      PTSUNNY   86  75  70 SE5       29.78F HX  95
SAIPAN AP      MOSUNNY   84  79  84 S7        29.79F HX  96

$$

PMZ161-040300-
REPUBLIC OF PALAU-

CITY           SKY/WX    TMP DP  RH WIND       PRES   REMARKS
KOROR AP       PTSUNNY   88  77  70 W12G18    29.88F HX 100
KOROR WSO      MOSUNNY   88  75  66 W12       29.90F HX  97

$$

PMZ171>174-040300-
FEDERATED STATES OF MICRONESIA-

CITY           SKY/WX    TMP DP  RH WIND       PRES   REMARKS
YAP AIRPORT    HVY RAIN  79  77  94 N9        29.87S
CHUUK AP       MOSUNNY   90  82  79 VRB6      29.86F HX 111
POHNPEI AP     CLOUDY    86  79  79 W10       29.85F HX  99
POHNPEI WSO    PTSUNNY   88  77  70 W9        29.88F HX 100
KOSRAE AP      PTSUNNY   88  79  74 W10       29.83F HX 102

$$

PMZ181-040300-
REPUBLIC OF THE MARSHALL ISLANDS-

CITY           SKY/WX    TMP DP  RH WIND       PRES   REMARKS
KWAJALEIN AP   SUNNY     81  73  78 NW8       29.82S
MAJURO AP      NOT AVBL
MAJURO WSO     PTSUNNY   84  79  84 SW14      29.79F HX  96

$$



USA.gov is the U.S. government's official web portal to all federal, state and local government web resources and services.